This is the latest recevied weather packets stored in our database for station/object K5SVV. If no packets are shown the sender has not sent any weather packets the latest 10 day(s).
| Time | Temp. | Humidity | Pressure | Rain* | Wind** | Luminosity | Snow |
|---|---|---|---|---|---|---|---|
| 1777907020 | 20.56° C | 72% | 1012.9 hPa | 0 mm | - | 616 W/m² | - |
| 1777906718 | 20.56° C | 73% | 1013.1 hPa | 0 mm | - | 612 W/m² | - |
| 1777906414 | 20.56° C | 73% | 1012.8 hPa | 0 mm | - | 577 W/m² | - |
| 1777906110 | 20° C | 75% | 1013.1 hPa | 0 mm | - | 561 W/m² | - |
| 1777905807 | 20° C | 74% | 1013 hPa | 0 mm | - | 574 W/m² | - |
| 1777905505 | 20° C | 74% | 1013 hPa | 0 mm | - | 527 W/m² | - |
| 1777905201 | 19.44° C | 75% | 1012.9 hPa | 0 mm | - | 494 W/m² | - |
| 1777904899 | 19.44° C | 75% | 1012.9 hPa | 0 mm | - | 473 W/m² | - |
| 1777904596 | 19.44° C | 75% | 1013.1 hPa | 0 mm | - | 454 W/m² | - |
| 1777904293 | 19.44° C | 75% | 1013 hPa | 0 mm | - | 422 W/m² | - |
| 1777903990 | 19.44° C | 75% | 1013 hPa | 0 mm | - | 399 W/m² | - |
| 1777903686 | 18.89° C | 75% | 1013.2 hPa | 0 mm | - | 396 W/m² | - |
| 1777903382 | 18.89° C | 76% | 1013.2 hPa | 0 mm | - | 360 W/m² | - |
| 1777903079 | 18.89° C | 76% | 1013.1 hPa | 0 mm | - | 337 W/m² | - |
| 1777902775 | 18.33° C | 77% | 1013.1 hPa | 0 mm | - | 306 W/m² | - |
| 1777902473 | 18.33° C | 77% | 1013.1 hPa | 0 mm | - | 286 W/m² | - |
| 1777902170 | 17.78° C | 78% | 1012.8 hPa | 0 mm | - | 291 W/m² | - |
| 1777901868 | 17.78° C | 78% | 1012.9 hPa | 0 mm | - | 225 W/m² | - |
| 1777901565 | 17.78° C | 78% | 1013.1 hPa | 0 mm | - | 219 W/m² | - |
| 1777901262 | 17.78° C | 78% | 1013.4 hPa | 0 mm | - | 218 W/m² | - |
| 1777900960 | 17.78° C | 78% | 1013.2 hPa | 0 mm | - | 221 W/m² | - |
| 1777900657 | 17.22° C | 78% | 1013 hPa | 0 mm | - | 201 W/m² | - |
| 1777900354 | 17.22° C | 79% | 1013.1 hPa | 0 mm | - | 210 W/m² | - |
| 1777900051 | 17.22° C | 80% | 1013 hPa | 0 mm | - | 181 W/m² | - |
| 1777899747 | 16.67° C | 80% | 1012.9 hPa | 0 mm | - | 161 W/m² | - |
* Rain latest hour (hover to see other rain measurements)
** Current wind speed in m/s (hover to see current wind gust speed)